Weather History for Tucson Davis Monthan, AZ

Change the Weather History Date:

Monday, March 24, 2014

  Actual Average Record
Temperature  
Mean Temperature 66 °F -  
Max Temperature 80 °F 78 °F 92 °F (1990)
Min Temperature 52 °F 46 °F 32 °F (1962)
Cooling Degree Days 1    
Growing Degree Days 16 (Base 50)    
Moisture  
Dew Point 24 °F    
Average Humidity 21    
Maximum Humidity 34    
Minimum Humidity 9    
Precipitation  
Precipitation 0.00 in - - ()
Sea Level Pressure  
Sea Level Pressure 29.95 in    
Wind  
Wind Speed 6 mph (SSE)    
Max Wind Speed 9 mph    
Max Gust Speed -    
Visibility 9 miles    
Events      
Averages and records for this station are not official NWS values.
T = Trace of Precipitation, MM = Missing Value Source: NWS Daily Summary

Daily Weather History Graph

Daily Weather History Graph

Search for Another Location

Airport:

Trip Planner

Search our weather history database for the weather conditions in past years. The results will help you decide how hot, cold, wet, or windy it might be!

Date:

Astronomy

Mar. 24, 2014 Rise Set
Actual Time 6:22 AM MST 6:37 PM MST
Civil Twilight 5:57 AM MST 7:02 PM MST
Nautical Twilight 5:28 AM MST 7:31 PM MST
Astronomical Twilight 5:00 AM MST 8:00 PM MST
Moon 1:36 AM MST (3/24) 12:25 PM MST (3/24)
Length of Visible Light 13h 04m
Length of Day
12h 15m
Last Quarter, 42% of the Moon is Illuminated
Mar 24
Last Quarter
Mar 30
New
Apr 7
First Quarter
Apr 15
Full
Apr 22
Last Quarter

Hourly Weather History & Observations

Time (MST) Temp. Dew Point Humidity Pressure Visibility Wind Dir Wind Speed Gust Speed Precip Events Conditions
12:58 AM 58.1 °F 24.4 °F 27% 29.96 in 10.0 mi SSE 5.8 mph - N/A   Clear
1:58 AM 56.7 °F 24.1 °F 28% 29.96 in 10.0 mi SE 9.2 mph - N/A   Clear
2:58 AM 55.2 °F 23.7 °F 30% 29.95 in 10.0 mi SSE 9.2 mph - N/A   Clear
3:58 AM 53.4 °F 23.7 °F 32% 29.96 in 10.0 mi SSE 6.9 mph - N/A   Clear
4:58 AM 52.7 °F 23.9 °F 33% 29.96 in 10.0 mi ESE 5.8 mph - N/A   Clear
5:58 AM 52.0 °F 24.4 °F 34% 29.99 in 10.0 mi ESE 4.6 mph - N/A   Clear
6:58 AM 54.7 °F 24.8 °F 32% 30.00 in 10.0 mi SSE 5.8 mph - N/A   Clear
7:58 AM 58.6 °F 25.9 °F 29% 30.01 in 10.0 mi SE 6.9 mph - N/A   Clear
8:58 AM 66.6 °F 27.0 °F 23% 30.00 in 10.0 mi SSE 6.9 mph - N/A   Clear
9:58 AM 70.2 °F 27.7 °F 21% 30.00 in 10.0 mi South 4.6 mph - N/A   Clear
10:53 AM 71.6 °F 28.4 °F 20% 30.08 in 2.5 mi Variable 1.2 mph - N/A   Haze
10:58 AM 72.1 °F 28.0 °F 19% 29.99 in 2.5 mi Variable 3.5 mph - N/A   Haze
11:03 AM 73.4 °F 28.4 °F 19% 30.08 in 10.0 mi Calm Calm - N/A   Clear
11:58 AM 75.4 °F 26.4 °F 16% 29.97 in 10.0 mi Calm Calm - N/A   Clear
12:58 PM 77.5 °F 23.0 °F 13% 29.95 in 10.0 mi SSE 2.3 mph - N/A   Clear
1:58 PM 79.0 °F 22.6 °F 12% 29.92 in 10.0 mi NNW 4.6 mph - N/A   Clear
2:55 PM 80.1 °F 18.3 °F 10% 29.88 in 10.0 mi ENE 5.8 mph - N/A   Clear
3:55 PM 79.9 °F 16.7 °F 9% 29.88 in 10.0 mi SW 8.1 mph - N/A   Clear
4:58 PM 80.2 °F 17.1 °F 9% 29.87 in 10.0 mi Calm Calm - N/A   Clear
5:58 PM 79.0 °F 20.7 °F 11% 29.87 in 10.0 mi NW 5.8 mph - N/A   Clear
6:58 PM 74.3 °F 20.8 °F 13% 29.89 in 10.0 mi NW 6.9 mph - N/A   Clear
7:58 PM 71.6 °F 20.5 °F 15% 29.89 in 10.0 mi NW 8.1 mph - N/A   Clear
8:58 PM 68.5 °F 22.5 °F 18% 29.90 in 10.0 mi WNW 5.8 mph - N/A   Clear
9:58 PM 66.6 °F 22.1 °F 18% 29.90 in 10.0 mi West 5.8 mph - N/A   Clear
10:58 PM 62.1 °F 22.8 °F 22% 29.90 in 10.0 mi SSE 9.2 mph - N/A   Clear
11:58 PM 59.7 °F 23.2 °F 25% 29.90 in 10.0 mi SE 9.2 mph - N/A   Clear